• In India
  • List of Countries
  • For 7 days
  • Water Temperature
  • Satellite Maps
  • Weather Map
  • Weather Widgets
  • user-avatar
    Login

    Hourly Weather Plawecino

    Today, 11 December, Tuesday

    Time Temperature Precipitation Wind Pressure Humidity
    00:00 +2°C° 0.6 mm 7 mps 750 mmHg 81%
    01:00 +2°C° 0 mm 6 mps 750 mmHg 84%
    02:00 +2°C° 0.5 mm 6 mps 750 mmHg 83%
    03:00 +2°C° 0.5 mm 6 mps 750 mmHg 83%
    04:00 +2°C° 0.5 mm 6 mps 750 mmHg 82%
    05:00 +2°C° 0.2 mm 6 mps 751 mmHg 82%
    06:00 +2°C° 0.2 mm 6 mps 751 mmHg 82%
    07:00 +1°C° 0 mm 6 mps 752 mmHg 83%
    08:00 +1°C° 0.2 mm 6 mps 753 mmHg 82%
    09:00 +1°C° 0.2 mm 6 mps 753 mmHg 81%
    10:00 +2°C° 0.2 mm 7 mps 754 mmHg 80%
    11:00 +2°C° 0.2 mm 6 mps 754 mmHg 79%
    12:00 +2°C° 0.2 mm 6 mps 755 mmHg 78%
    13:00 +2°C° 0 mm 6 mps 755 mmHg 78%
    14:00 +2°C° 0.2 mm 6 mps 756 mmHg 79%
    15:00 +2°C° 0.2 mm 6 mps 756 mmHg 81%
    16:00 +2°C° 0.2 mm 5 mps 757 mmHg 83%
    17:00 +1°C° 0.2 mm 5 mps 757 mmHg 84%
    18:00 +1°C° 0.2 mm 5 mps 758 mmHg 86%
    19:00 +1°C° 0.2 mm 5 mps 758 mmHg 87%
    20:00 +1°C° 0.1 mm 5 mps 759 mmHg 88%
    21:00 +1°C° 0.1 mm 5 mps 759 mmHg 89%
    22:00 0°C° 0.1 mm 4 mps 760 mmHg 90%
    23:00 0°C° 0 mm 4 mps 760 mmHg 89%

    Tomorrow, 12 December, Wednesday

    Time Temperature Precipitation Wind Pressure Humidity
    00:00 0°C° 0 mm 4 mps 761 mmHg 87%
    01:00 0°C° 0 mm 4 mps 761 mmHg 86%
    02:00 +1°C° 0 mm 3 mps 762 mmHg 85%
    03:00 +1°C° 0 mm 3 mps 762 mmHg 84%
    04:00 +1°C° 0 mm 3 mps 763 mmHg 83%
    05:00 +2°C° 0.1 mm 2 mps 763 mmHg 84%
    06:00 +1°C° 0.1 mm 2 mps 763 mmHg 84%
    07:00 +1°C° 0.1 mm 2 mps 764 mmHg 85%
    08:00 +2°C° 0.1 mm 2 mps 764 mmHg 83%
    09:00 +2°C° 0.1 mm 2 mps 764 mmHg 82%
    10:00 +2°C° 0.1 mm 2 mps 765 mmHg 81%
    11:00 +3°C° 0.1 mm 2 mps 765 mmHg 80%
    12:00 +3°C° 0.1 mm 2 mps 765 mmHg 79%
    13:00 +4°C° 0.1 mm 2 mps 765 mmHg 78%
    14:00 +2°C° 0.1 mm 3 mps 766 mmHg 81%
    15:00 +1°C° 0.1 mm 3 mps 766 mmHg 84%
    16:00 +1°C° 0.1 mm 3 mps 766 mmHg 87%
    17:00 +1°C° 0.1 mm 3 mps 766 mmHg 88%
    18:00 0°C° 0.1 mm 3 mps 766 mmHg 89%
    19:00 0°C° 0.1 mm 3 mps 766 mmHg 90%
    20:00 0°C° 0 mm 3 mps 766 mmHg 90%
    21:00 0°C° 0 mm 3 mps 767 mmHg 91%
    22:00 0°C° 0 mm 3 mps 767 mmHg 91%
    23:00 0°C° 0 mm 3 mps 767 mmHg 91%

    Day after tomorrow, 13 December, Thursday

    Time Temperature Precipitation Wind Pressure Humidity
    00:00 0°C° 0 mm 3 mps 767 mmHg 91%
    01:00 0°C° 0 mm 3 mps 767 mmHg 91%
    02:00 0°C° 0 mm 3 mps 767 mmHg 90%
    03:00 0°C° 0 mm 3 mps 766 mmHg 90%
    04:00 0°C° 0 mm 3 mps 766 mmHg 90%
    05:00 0°C° 0.1 mm 3 mps 766 mmHg 90%
    06:00 -1°C° 0.1 mm 4 mps 766 mmHg 90%
    07:00 0°C° 0.1 mm 4 mps 766 mmHg 90%
    08:00 0°C° 0.1 mm 4 mps 766 mmHg 88%
    09:00 0°C° 0.1 mm 4 mps 766 mmHg 87%
    10:00 0°C° 0.1 mm 4 mps 766 mmHg 86%
    11:00 0°C° 0.1 mm 4 mps 766 mmHg 84%
    12:00 0°C° 0.1 mm 4 mps 766 mmHg 83%
    13:00 0°C° 0.1 mm 4 mps 766 mmHg 81%
    14:00 +1°C° 0 mm 3 mps 766 mmHg 83%
    15:00 0°C° 0 mm 3 mps 765 mmHg 84%
    16:00 0°C° 0 mm 3 mps 765 mmHg 85%
    17:00 +1°C° 0 mm 2 mps 766 mmHg 85%
    18:00 +1°C° 0 mm 2 mps 766 mmHg 85%
    19:00 +1°C° 0 mm 2 mps 766 mmHg 85%
    20:00 -1°C° 0 mm 2 mps 766 mmHg 86%
    21:00 -1°C° 0 mm 2 mps 766 mmHg 87%
    22:00 -2°C° 0 mm 3 mps 766 mmHg 88%
    23:00 -2°C° 0 mm 3 mps 766 mmHg 89%

    14 December, Friday

    Time Temperature Precipitation Wind Pressure Humidity
    00:00 -2°C° 0 mm 3 mps 766 mmHg 89%
    01:00 -2°C° 0 mm 3 mps 767 mmHg 90%
    02:00 -2°C° 0 mm 3 mps 767 mmHg 90%
    03:00 -2°C° 0 mm 3 mps 767 mmHg 90%
    04:00 -4°C° 0 mm 3 mps 767 mmHg 89%
    05:00 -4°C° 0 mm 3 mps 767 mmHg 89%
    06:00 -4°C° 0 mm 3 mps 767 mmHg 88%
    07:00 -4°C° 0 mm 3 mps 767 mmHg 87%
    08:00 -2°C° 0 mm 3 mps 767 mmHg 84%
    09:00 -2°C° 0 mm 3 mps 767 mmHg 82%
    10:00 -2°C° 0 mm 3 mps 768 mmHg 80%
    11:00 -1°C° 0 mm 3 mps 768 mmHg 77%
    12:00 -1°C° 0 mm 3 mps 768 mmHg 75%
    13:00 0°C° 0 mm 3 mps 768 mmHg 72%
    14:00 -1°C° 0 mm 3 mps 768 mmHg 75%
    15:00 -2°C° 0 mm 3 mps 768 mmHg 78%
    16:00 -2°C° 0 mm 3 mps 768 mmHg 80%
    17:00 -2°C° 0 mm 3 mps 768 mmHg 81%
    18:00 -2°C° 0 mm 3 mps 768 mmHg 81%
    19:00 -4°C° 0 mm 3 mps 769 mmHg 82%
    20:00 -4°C° 0 mm 3 mps 769 mmHg 83%
    21:00 -4°C° 0 mm 3 mps 769 mmHg 83%
    22:00 -4°C° 0 mm 3 mps 769 mmHg 84%
    23:00 -4°C° 0 mm 3 mps 769 mmHg 84%

    15 December, Saturday

    Time Temperature Precipitation Wind Pressure Humidity
    00:00 -3°C° 0 mm 2 mps 769 mmHg 85%
    01:00 -3°C° 0 mm 2 mps 769 mmHg 85%
    02:00 -3°C° 0 mm 2 mps 769 mmHg 86%
    03:00 -3°C° 0 mm 2 mps 769 mmHg 86%
    04:00 -3°C° 0 mm 2 mps 769 mmHg 86%
    05:00 -4°C° 0 mm 2 mps 769 mmHg 86%
    06:00 -4°C° 0 mm 2 mps 770 mmHg 87%
    07:00 -4°C° 0 mm 2 mps 770 mmHg 87%
    08:00 -3°C° 0 mm 2 mps 770 mmHg 86%
    09:00 -3°C° 0 mm 2 mps 771 mmHg 85%
    10:00 -3°C° 0 mm 2 mps 771 mmHg 84%
    11:00 -2°C° 0 mm 2 mps 771 mmHg 82%
    12:00 -2°C° 0 mm 2 mps 771 mmHg 81%
    13:00 -1°C° 0 mm 2 mps 771 mmHg 80%
    14:00 -2°C° 0 mm 2 mps 771 mmHg 83%
    15:00 -2°C° 0 mm 2 mps 771 mmHg 86%
    16:00 -3°C° 0 mm 2 mps 771 mmHg 90%
    17:00 -4°C° 0 mm 3 mps 771 mmHg 90%
    18:00 -4°C° 0 mm 3 mps 771 mmHg 91%
    19:00 -4°C° 0 mm 3 mps 771 mmHg 92%
    20:00 -4°C° 0 mm 3 mps 771 mmHg 92%
    21:00 -4°C° 0 mm 3 mps 771 mmHg 93%
    22:00 -4°C° 0 mm 3 mps 771 mmHg 93%
    23:00 -4°C° 0 mm 3 mps 771 mmHg 93%

    16 December, Sunday

    Time Temperature Precipitation Wind Pressure Humidity
    00:00 -4°C° 0 mm 4 mps 771 mmHg 93%
    01:00 -4°C° 0 mm 4 mps 771 mmHg 93%
    02:00 -4°C° 0 mm 4 mps 771 mmHg 93%
    03:00 -4°C° 0 mm 4 mps 770 mmHg 92%
    04:00 -5°C° 0 mm 5 mps 770 mmHg 92%
    05:00 -5°C° 0 mm 5 mps 769 mmHg 90%
    06:00 -5°C° 0 mm 6 mps 769 mmHg 88%
    07:00 -5°C° 0 mm 6 mps 768 mmHg 86%
    08:00 -6°C° 0 mm 7 mps 768 mmHg 83%
    09:00 -6°C° 0 mm 7 mps 768 mmHg 80%
    10:00 -4°C° 0 mm 7 mps 768 mmHg 77%
    11:00 -4°C° 0 mm 7 mps 767 mmHg 75%
    12:00 -5°C° 0 mm 8 mps 766 mmHg 72%
    13:00 -4°C° 0 mm 8 mps 766 mmHg 70%
    14:00 -4°C° 0 mm 8 mps 765 mmHg 71%
    15:00 -5°C° 0 mm 8 mps 765 mmHg 73%
    16:00 -5°C° 0 mm 8 mps 764 mmHg 75%
    17:00 -5°C° 0 mm 8 mps 764 mmHg 75%
    18:00 -5°C° 0 mm 8 mps 764 mmHg 76%
    19:00 -4°C° 0 mm 8 mps 763 mmHg 77%
    20:00 -4°C° 0 mm 8 mps 763 mmHg 78%
    21:00 -4°C° 0 mm 8 mps 763 mmHg 78%
    22:00 -3°C° 0 mm 7 mps 763 mmHg 78%
    23:00 -3°C° 0.2 mm 7 mps 762 mmHg 79%
    Show more